Flag for Austria Weather past 2 weeks in Tulln an der Donau, Lower Austria, Austria

Now
64 °F

Broken clouds.


Feels Like: 64 °F
Forecast: 57 / 68 °F
Wind: 5 mph from South

Location: Tulln Airport

Current Time: Jul 29, 2015 at 2:39:24 PM

Latest Report: Jul 29, 2015 at 1:50 PM


Visibility: 22 mi

Pressure: 29.86 "Hg

Humidity: 73%

Dew point: 55 °F

Location of Tulln an der DonauLocation

Historic Weather in Tulln an der Donau — Graph

°F

Tulln an der Donau temperature yesterday

Maximum temperature yesterday: 79 °F (at 4:50 PM)
Minimum temperature yesterday: 57 °F (at 5:50 AM)
Average temperature yesterday: 71 °F

Past Weeks' High & Low Weather Summary

 TemperatureHumidityPressure
High100 °F (Jul 22, 2:50 PM)100% (Jul 16, 5:50 AM)30.12 "Hg (Jul 16, 5:50 AM)
Low57 °F (Jul 16, 5:50 AM)23% (Jul 18, 3:50 PM)29.71 "Hg (Jul 25, 5:50 AM)
Average78 °F58%29.92 "Hg
* Reported Jul 14 12:50 PM — Jul 29 12:50 PM, Tulln an der Donau, Weather by CustomWeather, © 2015

Note: Actual official high and low records may vary slightly from our data, if they occured in-between our weather recording intervals... More about our weather records

Advertising

Tulln an der Donau weather history for previous 24 hours

 ConditionsComfort  
Time TempWeatherWind HumidityBarometerVisibility
12:50 PM
Wed, Jul 29
64 °FBroken clouds.8 mph73%29.89 "Hg22 mi
11:50 AM63 °FBroken clouds.8 mph73%29.89 "Hg19 mi
10:50 AM61 °FPartly sunny.9 mph83%29.92 "Hg19 mi
9:50 AM59 °FPartly sunny.12 mph88%29.92 "Hg16 mi
8:50 AM57 °FLight rain. Partly sunny.12 mph94%29.92 "Hg16 mi
7:50 AM57 °FLight rain. Broken clouds.12 mph94%29.92 "Hg7 mi
6:50 AM57 °FLight rain. Overcast.6 mph100%29.92 "Hg4 mi
5:50 AM59 °FRain. Overcast.3 mph94%29.92 "Hg4 mi
10:50 PM
Tue, Jul 28
68 °FPassing clouds.3 mph69%29.80 "Hg19 mi
9:50 PM68 °FPassing clouds.2 mph69%29.80 "Hg19 mi
8:50 PM70 °FPartly sunny.3 mph60%29.80 "Hg31 mi
7:50 PM75 °FPartly sunny.6 mph50%29.77 "Hg31 mi
6:50 PM77 °FBroken clouds.7 mph42%29.77 "Hg31 mi
4:50 PM79 °FBroken clouds.8 mph42%29.77 "Hg31 mi
3:50 PM77 °FBroken clouds.8 mph42%29.80 "Hg31 mi
2:50 PM77 °FPartly sunny.14 mph42%29.80 "Hg31 mi
Weather by CustomWeather, © 2015

See weather overviewHow to use our weather pages